#timestamp,LO_Frequency,Hit,StdDev 
1456484415.3,286046988.7,N
1456484435.1,286046992.8,N
1456484455.9,286046994.4,N
1456484475.7,286046994.7,N
1456484495.5,286046990.7,N
1456484515.3,286046991.0,N
1456484535.2,286046987.3,N
1456484555.0,286046985.4,Y
1456484555.9,286046985.4,P
1456484575.8,286046995.5,N
1456484595.6,286046993.7,N
1456484615.4,286046996.4,N
1456484635.2,286046994.5,N
1456484655.1,286046991.1,N
1456484656.0,286046991.1,N
1456484675.8,286046991.6,N
1456484695.6,286046993.1,N
1456484715.5,286046995.8,N
1456484735.3,286046995.8,N
1456484755.1,286046996.0,N
1456484775.9,286046993.2,N
1456484795.7,286046991.5,Y
1456484815.5,286046999.6,P
1456484835.4,286046999.6,N
1456484855.2,286046996.1,N
1456484875.0,286046995.5,N
1456484875.9,286046995.5,N
1456484895.8,286046994.4,N
1456484915.6,286046988.6,Y
1456484935.4,286046994.0,P
1456484955.3,286046990.6,P
1456484975.1,286046991.5,P
1456484976.0,286046991.5,Y
1456484995.8,286046994.9,P
1456485015.7,286046999.1,N
1456485035.5,286047000.4,N
1456485055.3,286047005.6,N
1456485075.2,286047008.6,N
1456485095.9,286047008.1,N
1456485115.7,286047007.8,N
1456485135.6,286047012.2,N
1456485155.4,286047009.1,N
1456485175.2,286047006.6,N
1456485195.0,286047010.5,N
1456485196.0,286047010.5,N
1456485215.8,286047011.7,N
1456485235.6,286047012.3,N
1456485255.4,286047011.3,N
1456485275.3,286047011.8,N
1456485295.1,286047010.8,N
1456485315.8,286047012.0,N
1456485335.7,286047010.9,N
1456485355.5,286047008.3,N
1456485375.3,286047008.1,N
1456485395.2,286047010.3,N
1456485415.9,286047008.9,N
1456485435.7,286047007.3,N
1456485455.5,286047004.1,N
1456485475.4,286047000.5,N
1456485495.2,286046996.6,N
1456485515.0,286046993.9,N
1456485515.9,286046993.9,N
1456485535.8,286046993.2,N
1456485555.6,286046989.4,N
1456485575.4,286046989.7,N
1456485595.3,286046986.9,N
1456485615.1,286046987.8,N
1456485635.8,286046985.3,N
1456485655.7,286046988.4,N
1456485675.5,286046986.3,N
1456485695.3,286046986.4,N
1456485715.2,286046986.4,N
1456485735.9,286046985.0,N
1456485755.7,286046985.1,N
1456485775.6,286046982.5,N
1456485795.4,286046986.7,N
1456485815.2,286046986.1,N
1456485835.0,286046990.6,N
1456485836.0,286046990.6,N
1456485855.8,286046990.1,N
1456485875.6,286046990.2,N
1456485895.4,286046991.9,N
1456485915.3,286046993.9,N
1456485935.1,286046993.4,N
1456485955.8,286046994.5,N
1456485975.7,286046991.3,N
1456485995.5,286046990.8,N
1456486015.3,286046995.5,N
1456486035.2,286046994.3,N
1456486055.9,286046993.1,N
1456486075.7,286046991.9,N
1456486095.6,286046992.5,N
1456486115.4,286046991.0,N
1456486135.2,286046986.9,Y
1456486155.1,286046996.9,P
1456486156.0,286046996.9,N
1456486175.8,286046994.9,N
1456486195.6,286046994.9,N
1456486215.5,286046999.6,N
1456486235.3,286046999.8,N
1456486255.1,286046998.8,N
1456486275.9,286046997.2,N
1456486295.7,286046998.2,N
1456486315.5,286046999.9,N
1456486335.3,286047002.2,N
1456486355.2,286047002.4,N
1456486375.0,286046999.8,N
1456486375.9,286046999.8,N
1456486395.7,286047007.3,N
1456486415.6,286047006.9,N
1456486435.4,286047008.1,N
1456486455.2,286047011.4,N
1456486475.1,286047011.5,N
1456486476.0,286047011.5,N
1456486495.8,286047013.9,N
1456486515.6,286047013.9,N
1456486535.5,286047013.4,N
1456486555.3,286047015.3,N
1456486575.1,286047016.3,N
1456486595.9,286047019.7,N
1456486615.7,286047017.4,N
1456486635.5,286047016.9,N
1456486655.3,286047018.0,N
1456486675.2,286047016.1,N
1456486695.0,286047014.6,N
1456486695.9,286047014.6,N
1456486715.7,286047020.4,N
1456486735.6,286047016.4,N
1456486755.4,286047016.7,N
1456486775.2,286047014.3,N
1456486795.1,286047015.2,N
1456486796.0,286047015.2,N
1456486815.8,286047013.9,N
1456486835.6,286047011.0,N
1456486855.5,286047011.9,N
1456486875.3,286047007.9,N
1456486895.1,286047010.6,N
1456486915.9,286047010.0,N
1456486935.7,286047011.8,Y
1456486955.5,286046998.4,P
1456486975.4,286046998.5,N
1456486995.2,286046999.0,N
1456487015.0,286046998.2,N
1456487015.9,286046998.2,N
1456487035.8,286046996.9,N
1456487055.6,286046997.7,N
1456487075.4,286046995.6,N
1456487095.2,286046994.1,N
1456487115.1,286046993.8,N
1456487116.0,286046993.8,N
1456487135.8,286046995.5,N
1456487155.6,286047001.4,N
1456487175.5,286047001.9,N
1456487195.3,286047006.0,N
1456487215.1,286047008.7,N
1456487235.9,286047007.7,N
1456487255.7,286047008.6,N
1456487275.5,286047010.0,N
1456487295.4,286047012.4,N
1456487315.2,286047013.9,N
1456487335.0,286047011.1,N
1456487335.9,286047011.1,N
1456487355.8,286047013.0,N
1456487375.6,286047012.0,N
1456487395.4,286047012.3,N
1456487415.2,286047008.8,N
1456487435.1,286047003.6,N
1456487436.0,286047003.6,N
1456487455.8,286047003.5,N
1456487475.6,286047001.7,N
1456487495.5,286046998.4,N
1456487515.3,286046993.3,N
1456487535.1,286046992.3,N
1456487555.9,286046992.0,N
1456487575.7,286046996.0,N
1456487595.5,286046996.5,N
1456487615.4,286046994.9,N
1456487635.2,286046998.6,N
1456487655.0,286046998.5,N
1456487655.9,286046998.5,N
1456487675.8,286047003.7,N
1456487695.6,286047008.8,N
1456487715.4,286047011.5,N
1456487735.3,286047009.0,N
1456487755.1,286047003.5,N
1456487756.0,286047003.5,N
1456487775.8,286047001.3,N
1456487795.7,286047003.9,N
1456487815.5,286047004.4,N
1456487835.3,286046998.5,N
1456487855.2,286046998.6,N
1456487875.9,286047000.8,N
1456487895.7,286047002.5,N
1456487915.5,286046999.9,N
1456487935.4,286047001.1,N
1456487955.2,286047002.8,N
1456487975.0,286047003.6,N
1456487975.9,286047003.6,N
1456487995.8,286047005.7,N
